ANZ600 NZQN-NZWN

Flight info

Callsign ANZ600
Flight time N/A
Altitude 37000
Route QN Q787 TIMJO Y153 DOPKI Y533 GRETA Y393 WARDS
Aircraft A21N/M-SDE2E3FGHIRWXY/LB1

Departure

Time 2026-04-27 05:43
Airport Queenstown Airport (NZQN)

Arrival

Time N/A
Airport Wellington International Airport (NZWN)
Time Latitude Longitude Altitude Speed Heading
2026-04-27 05:17 -45.02103 168.73964 1172 ft 0 kts 207°
2026-04-27 05:34 -45.02102 168.73964 1177 ft 2 kts 207°
2026-04-27 05:34 -45.02086 168.73976 1177 ft 3 kts 207°
2026-04-27 05:34 -45.02068 168.73981 1183 ft 3 kts 153°
2026-04-27 05:35 -45.02058 168.73968 1177 ft 0 kts 115°
2026-04-27 05:37 -45.02059 168.73974 1172 ft 4 kts 109°
2026-04-27 05:37 -45.02048 168.74041 1176 ft 7 kts 48°
2026-04-27 05:38 -45.02023 168.74065 1177 ft 0 kts 27°
2026-04-27 05:38 -45.02012 168.74073 1172 ft 5 kts 26°
2026-04-27 05:38 -45.01990 168.74087 1177 ft 0 kts 23°
2026-04-27 05:39 -45.01964 168.74102 1176 ft 6 kts 21°
2026-04-27 05:39 -45.01915 168.74150 1179 ft 14 kts 59°
2026-04-27 05:39 -45.01885 168.74310 1182 ft 18 kts 78°
2026-04-27 05:39 -45.01856 168.74491 1175 ft 20 kts 78°
2026-04-27 05:40 -45.01822 168.74694 1174 ft 22 kts 79°
2026-04-27 05:40 -45.01788 168.74921 1175 ft 24 kts 77°
2026-04-27 05:40 -45.01751 168.75152 1199 ft 23 kts 76°
2026-04-27 05:40 -45.01735 168.75252 1201 ft 13 kts 78°
2026-04-27 05:41 -45.01714 168.75391 1203 ft 15 kts 78°
2026-04-27 05:41 -45.01684 168.75574 1212 ft 23 kts 78°
2026-04-27 05:41 -45.01667 168.75725 1211 ft 12 kts 63°
2026-04-27 05:41 -45.01637 168.75815 1211 ft 3 kts 115°
2026-04-27 05:42 -45.01649 168.75812 1211 ft 1 kts 216°
2026-04-27 05:42 -45.01653 168.75781 1210 ft 8 kts 258°
2026-04-27 05:42 -45.01697 168.75499 1211 ft 61 kts 258°
2026-04-27 05:42 -45.01843 168.74573 1175 ft 132 kts 257°
2026-04-27 05:43 -45.02060 168.73083 1434 ft 164 kts 258°
2026-04-27 05:43 -45.02310 168.71400 1819 ft 190 kts 255°
2026-04-27 05:43 -45.02853 168.69520 2043 ft 226 kts 239°
2026-04-27 05:43 -45.04028 168.67816 2269 ft 262 kts 212°
2026-04-27 05:44 -45.05873 168.67064 2510 ft 296 kts 181°
2026-04-27 05:44 -45.07949 168.67835 2784 ft 326 kts 150°
2026-04-27 05:44 -45.09577 168.70084 3627 ft 331 kts 121°
2026-04-27 05:44 -45.10261 168.73144 4810 ft 325 kts 92°
2026-04-27 05:45 -45.09799 168.76169 6185 ft 310 kts 55°
2026-04-27 05:45 -45.08256 168.78071 7573 ft 290 kts 20°
2026-04-27 05:45 -45.06308 168.78581 8453 ft 287 kts 348°
2026-04-27 05:45 -45.04383 168.77702 8917 ft 303 kts 326°
2026-04-27 05:46 -45.02633 168.75839 9032 ft 329 kts 307°
2026-04-27 05:46 -45.01480 168.72943 8994 ft 353 kts 284°
2026-04-27 05:46 -45.01256 168.69386 8995 ft 376 kts 262°
2026-04-27 05:46 -45.02021 168.66038 10243 ft 351 kts 237°
2026-04-27 05:47 -45.03660 168.63676 11230 ft 328 kts 216°
2026-04-27 05:47 -45.05756 168.62548 11810 ft 328 kts 188°
2026-04-27 05:47 -45.08044 168.63068 12016 ft 340 kts 167°
2026-04-27 05:47 -45.10211 168.64470 12249 ft 347 kts 153°
2026-04-27 05:48 -45.12179 168.66459 12469 ft 348 kts 147°
2026-04-27 05:48 -45.14084 168.68576 12711 ft 352 kts 147°
2026-04-27 05:48 -45.16140 168.70613 12947 ft 366 kts 157°
2026-04-27 05:48 -45.18525 168.71953 13200 ft 375 kts 168°
2026-04-27 05:49 -45.21087 168.72968 13451 ft 391 kts 169°
2026-04-27 05:49 -45.23744 168.74115 13707 ft 405 kts 171°
2026-04-27 05:49 -45.26539 168.74849 14098 ft 411 kts 174°
2026-04-27 05:49 -45.29366 168.75557 14702 ft 411 kts 175°
2026-04-27 05:50 -45.32114 168.76260 15705 ft 402 kts 175°
2026-04-27 05:50 -45.34868 168.76972 16810 ft 392 kts 176°
2026-04-27 05:50 -45.37484 168.77668 17921 ft 382 kts 176°
2026-04-27 05:50 -45.40064 168.78384 18946 ft 373 kts 176°
2026-04-27 05:51 -45.42574 168.79080 19928 ft 363 kts 176°
2026-04-27 05:51 -45.44989 168.80122 20815 ft 368 kts 160°
2026-04-27 05:51 -45.47033 168.82377 21785 ft 379 kts 136°
2026-04-27 05:51 -45.48440 168.85640 22287 ft 398 kts 115°
2026-04-27 05:52 -45.49152 168.89545 22517 ft 415 kts 102°
2026-04-27 05:52 -45.49591 168.93672 22726 ft 427 kts 100°
2026-04-27 05:52 -45.50021 168.97924 22960 ft 438 kts 101°
2026-04-27 05:52 -45.50485 169.02283 23203 ft 449 kts 101°
2026-04-27 05:53 -45.50977 169.06733 23436 ft 459 kts 101°
2026-04-27 05:53 -45.51317 169.09727 23588 ft 466 kts 101°
2026-04-27 05:53 -45.51845 169.14329 23795 ft 475 kts 101°
2026-04-27 05:53 -45.52388 169.19028 24002 ft 483 kts 100°
2026-04-27 05:54 -45.52886 169.23780 24317 ft 487 kts 99°
2026-04-27 05:54 -45.53216 169.28592 24699 ft 489 kts 91°
2026-04-27 05:54 -45.52987 169.33447 25029 ft 493 kts 79°
2026-04-27 05:54 -45.51648 169.39657 25457 ft 496 kts 65°
2026-04-27 05:55 -45.50250 169.44149 25827 ft 496 kts 59°
2026-04-27 05:55 -45.49071 169.47013 26098 ft 493 kts 52°
2026-04-27 05:55 -45.46171 169.51932 26607 ft 488 kts 41°
2026-04-27 05:55 -45.44543 169.54235 26831 ft 488 kts 39°
2026-04-27 05:56 -45.42068 169.57459 27164 ft 489 kts 37°
2026-04-27 05:56 -45.39460 169.60677 27497 ft 490 kts 36°
2026-04-27 05:56 -45.36894 169.63777 27813 ft 492 kts 35°
2026-04-27 05:56 -45.34282 169.66929 28180 ft 492 kts 36°
2026-04-27 05:57 -45.31682 169.70088 28656 ft 490 kts 36°
2026-04-27 05:57 -45.29111 169.73242 29146 ft 487 kts 36°
2026-04-27 05:57 -45.26557 169.76397 29631 ft 485 kts 37°
2026-04-27 05:57 -45.24021 169.79543 30064 ft 484 kts 37°
2026-04-27 05:58 -45.21492 169.82684 30411 ft 483 kts 37°
2026-04-27 05:58 -45.18967 169.85812 30739 ft 482 kts 37°
2026-04-27 05:58 -45.16440 169.88934 31055 ft 481 kts 37°
2026-04-27 05:58 -45.13917 169.92041 31347 ft 480 kts 37°
2026-04-27 05:59 -45.11400 169.95134 31647 ft 479 kts 37°
2026-04-27 05:59 -45.08884 169.98220 31945 ft 478 kts 37°
2026-04-27 05:59 -45.06367 170.01302 32211 ft 478 kts 36°
2026-04-27 05:59 -45.03850 170.04378 32455 ft 478 kts 36°
2026-04-27 06:00 -44.98814 170.10522 32770 ft 482 kts 36°
2026-04-27 06:00 -44.96275 170.13615 33001 ft 482 kts 36°
2026-04-27 06:00 -44.93729 170.16710 33258 ft 481 kts 37°
2026-04-27 06:01 -44.91201 170.19784 33571 ft 479 kts 37°
2026-04-27 06:01 -44.88677 170.22851 33813 ft 478 kts 37°
2026-04-27 06:01 -44.86157 170.25910 34047 ft 478 kts 37°
2026-04-27 06:01 -44.83637 170.28965 34253 ft 477 kts 37°
2026-04-27 06:02 -44.81127 170.32005 34567 ft 473 kts 37°
2026-04-27 06:02 -44.78657 170.34993 34990 ft 465 kts 36°
2026-04-27 06:02 -44.76217 170.37945 35408 ft 457 kts 37°
2026-04-27 06:02 -44.73824 170.40836 35848 ft 449 kts 37°
2026-04-27 06:03 -44.71470 170.43675 36291 ft 440 kts 37°
2026-04-27 06:03 -44.69167 170.46447 36744 ft 430 kts 36°
2026-04-27 06:03 -44.66909 170.49160 37077 ft 424 kts 36°
2026-04-27 06:03 -44.64697 170.51811 37129 ft 424 kts 36°
2026-04-27 06:04 -44.60186 170.57204 37120 ft 427 kts 37°
2026-04-27 06:04 -44.55656 170.62616 37131 ft 429 kts 37°
2026-04-27 06:05 -44.51096 170.68057 37131 ft 432 kts 37°
2026-04-27 06:05 -44.46508 170.73521 37143 ft 435 kts 37°
2026-04-27 06:06 -44.41868 170.79035 37132 ft 439 kts 37°
2026-04-27 06:06 -44.37191 170.84581 37131 ft 442 kts 37°
2026-04-27 06:07 -44.32477 170.90159 37137 ft 446 kts 37°
2026-04-27 06:07 -44.27718 170.95778 37128 ft 450 kts 37°
2026-04-27 06:08 -44.22915 171.01437 37131 ft 453 kts 37°
2026-04-27 06:08 -44.18068 171.07135 37129 ft 458 kts 37°
2026-04-27 06:09 -44.13207 171.12837 37132 ft 462 kts 37°
2026-04-27 06:09 -44.08267 171.18618 37131 ft 466 kts 37°
2026-04-27 06:10 -44.03278 171.24443 37134 ft 470 kts 37°
2026-04-27 06:10 -43.98251 171.30300 37131 ft 472 kts 37°
2026-04-27 06:11 -43.93218 171.36152 37129 ft 472 kts 37°
2026-04-27 06:11 -43.88175 171.42000 37137 ft 472 kts 37°
2026-04-27 06:12 -43.83122 171.47846 37134 ft 473 kts 37°
2026-04-27 06:12 -43.78063 171.53685 37133 ft 473 kts 37°
2026-04-27 06:13 -43.73034 171.59477 37137 ft 473 kts 37°
2026-04-27 06:13 -43.68018 171.65384 37144 ft 475 kts 40°
2026-04-27 06:14 -43.65780 171.68748 37138 ft 477 kts 53°
2026-04-27 06:14 -43.63972 171.72594 37137 ft 478 kts 58°
2026-04-27 06:14 -43.60641 171.80554 37146 ft 480 kts 58°
2026-04-27 06:15 -43.57108 171.88372 37144 ft 480 kts 55°
2026-04-27 06:15 -43.53368 171.95988 37138 ft 479 kts 54°
2026-04-27 06:16 -43.49552 172.03522 37150 ft 480 kts 54°
2026-04-27 06:16 -43.45720 172.11056 37149 ft 480 kts 54°
2026-04-27 06:17 -43.41896 172.18584 37148 ft 480 kts 54°
2026-04-27 06:17 -43.38076 172.26101 37152 ft 480 kts 54°
2026-04-27 06:18 -43.34250 172.33612 37150 ft 480 kts 54°
2026-04-27 06:18 -43.30416 172.41119 37157 ft 480 kts 54°
2026-04-27 06:19 -43.26603 172.48566 37150 ft 479 kts 54°
2026-04-27 06:19 -43.22764 172.56045 37156 ft 479 kts 54°
2026-04-27 06:20 -43.18920 172.63515 37147 ft 479 kts 54°
2026-04-27 06:20 -43.15074 172.70970 37154 ft 479 kts 54°
2026-04-27 06:21 -43.11225 172.78411 37157 ft 479 kts 54°
2026-04-27 06:21 -43.07371 172.85845 37159 ft 479 kts 54°
2026-04-27 06:22 -43.03508 172.93275 37159 ft 479 kts 53°
2026-04-27 06:22 -42.99646 173.00687 37157 ft 479 kts 54°
2026-04-27 06:23 -42.95220 173.07409 37168 ft 475 kts 38°
2026-04-27 06:23 -42.90057 173.12947 37167 ft 475 kts 34°
2026-04-27 06:24 -42.84714 173.18276 37170 ft 475 kts 34°
2026-04-27 06:24 -42.79359 173.23566 37169 ft 475 kts 34°
2026-04-27 06:25 -42.73967 173.28806 37175 ft 476 kts 31°
2026-04-27 06:25 -42.68546 173.33993 37173 ft 477 kts 32°
2026-04-27 06:26 -42.63169 173.39279 37179 ft 477 kts 33°
2026-04-27 06:26 -42.57851 173.44566 37179 ft 477 kts 33°
2026-04-27 06:27 -42.52502 173.49875 37162 ft 476 kts 33°
2026-04-27 06:27 -42.49832 173.52516 36615 ft 475 kts 33°
2026-04-27 06:27 -42.47152 173.55160 35777 ft 478 kts 33°
2026-04-27 06:28 -42.44452 173.57821 34930 ft 482 kts 33°
2026-04-27 06:28 -42.41734 173.60505 34098 ft 485 kts 33°
2026-04-27 06:28 -42.39005 173.63201 33212 ft 487 kts 33°
2026-04-27 06:28 -42.36268 173.65896 32366 ft 488 kts 33°
2026-04-27 06:29 -42.33518 173.68597 31509 ft 489 kts 33°
2026-04-27 06:29 -42.30762 173.71299 30815 ft 487 kts 33°
2026-04-27 06:29 -42.28049 173.73962 30515 ft 476 kts 33°
2026-04-27 06:29 -42.25375 173.76579 29692 ft 475 kts 33°
2026-04-27 06:30 -42.22713 173.79217 28778 ft 476 kts 34°
2026-04-27 06:30 -42.20028 173.81878 27740 ft 481 kts 34°
2026-04-27 06:30 -42.17332 173.84538 26974 ft 479 kts 34°
2026-04-27 06:30 -42.14678 173.87143 26299 ft 475 kts 34°
2026-04-27 06:31 -42.12014 173.89747 25664 ft 471 kts 33°
2026-04-27 06:31 -42.09373 173.92322 25039 ft 467 kts 33°
2026-04-27 06:31 -42.06750 173.94873 24441 ft 463 kts 33°
2026-04-27 06:31 -42.04152 173.97396 23832 ft 459 kts 33°
2026-04-27 06:32 -42.01572 173.99898 23163 ft 454 kts 33°
2026-04-27 06:32 -41.99018 174.02372 22429 ft 451 kts 33°
2026-04-27 06:32 -41.96481 174.04826 21748 ft 447 kts 33°
2026-04-27 06:32 -41.93965 174.07259 21074 ft 444 kts 34°
2026-04-27 06:33 -41.91466 174.09671 20402 ft 440 kts 34°
2026-04-27 06:33 -41.88981 174.12071 19748 ft 437 kts 34°
2026-04-27 06:33 -41.86525 174.14445 19118 ft 434 kts 34°
2026-04-27 06:33 -41.84080 174.16806 18466 ft 432 kts 34°
2026-04-27 06:34 -41.81656 174.19143 17842 ft 426 kts 34°
2026-04-27 06:34 -41.79261 174.21452 17168 ft 423 kts 34°
2026-04-27 06:34 -41.76886 174.23744 16547 ft 418 kts 34°
2026-04-27 06:34 -41.74542 174.26002 15947 ft 413 kts 34°
2026-04-27 06:35 -41.72105 174.28004 15351 ft 408 kts 27°
2026-04-27 06:35 -41.69637 174.29734 14762 ft 403 kts 25°
2026-04-27 06:35 -41.67150 174.31420 14150 ft 400 kts 25°
2026-04-27 06:35 -41.64683 174.33085 13515 ft 395 kts 25°
2026-04-27 06:36 -41.62250 174.34729 12917 ft 390 kts 25°
2026-04-27 06:36 -41.59845 174.36356 12440 ft 382 kts 26°
2026-04-27 06:36 -41.57522 174.37929 12196 ft 367 kts 26°
2026-04-27 06:36 -41.55285 174.39443 11972 ft 353 kts 26°
2026-04-27 06:37 -41.53132 174.40899 11739 ft 341 kts 26°
2026-04-27 06:37 -41.51018 174.42326 11238 ft 339 kts 26°
2026-04-27 06:37 -41.48950 174.43724 11013 ft 326 kts 26°
2026-04-27 06:37 -41.46976 174.45060 10984 ft 312 kts 26°
2026-04-27 06:38 -41.45050 174.46364 10990 ft 310 kts 26°
2026-04-27 06:38 -41.43124 174.47666 10992 ft 310 kts 26°
2026-04-27 06:38 -41.41208 174.48959 10904 ft 306 kts 26°
2026-04-27 06:38 -41.39316 174.50234 10490 ft 305 kts 26°
2026-04-27 06:39 -41.37423 174.51509 10041 ft 304 kts 26°
2026-04-27 06:39 -41.35542 174.52774 9588 ft 302 kts 26°
2026-04-27 06:39 -41.33700 174.54014 9348 ft 291 kts 26°
2026-04-27 06:39 -41.31935 174.55201 9178 ft 279 kts 26°
2026-04-27 06:40 -41.30256 174.56332 8962 ft 270 kts 26°
2026-04-27 06:40 -41.28597 174.57449 8637 ft 265 kts 26°
2026-04-27 06:40 -41.26961 174.58548 8281 ft 262 kts 26°
2026-04-27 06:40 -41.25339 174.59637 7854 ft 261 kts 26°
2026-04-27 06:41 -41.23703 174.60734 7158 ft 264 kts 26°
2026-04-27 06:41 -41.22088 174.61817 6743 ft 254 kts 27°
2026-04-27 06:41 -41.20553 174.62846 6354 ft 242 kts 28°
2026-04-27 06:41 -41.19074 174.63853 5905 ft 235 kts 28°
2026-04-27 06:42 -41.18117 174.64506 5594 ft 232 kts 28°
2026-04-27 06:42 -41.16220 174.65792 4893 ft 228 kts 28°
2026-04-27 06:42 -41.15286 174.66421 4555 ft 226 kts 27°
2026-04-27 06:42 -41.13902 174.67352 4156 ft 223 kts 27°
2026-04-27 06:43 -41.12636 174.68505 4106 ft 219 kts 46°
2026-04-27 06:43 -41.11877 174.70214 4046 ft 214 kts 75°
2026-04-27 06:43 -41.11739 174.72106 3824 ft 201 kts 90°
2026-04-27 06:43 -41.11801 174.73941 3458 ft 203 kts 93°
2026-04-27 06:44 -41.11898 174.75880 3327 ft 216 kts 93°
2026-04-27 06:44 -41.11993 174.77880 3154 ft 217 kts 93°
2026-04-27 06:44 -41.12215 174.79857 2994 ft 218 kts 109°
2026-04-27 06:44 -41.13114 174.81444 2990 ft 218 kts 147°
2026-04-27 06:45 -41.14561 174.81969 2997 ft 219 kts 177°
2026-04-27 06:45 -41.16085 174.81926 2995 ft 220 kts 183°
2026-04-27 06:45 -41.17590 174.81789 2980 ft 208 kts 184°
2026-04-27 06:45 -41.18955 174.81663 2970 ft 186 kts 183°
2026-04-27 06:46 -41.20217 174.81555 3006 ft 185 kts 183°
2026-04-27 06:46 -41.21552 174.81451 3002 ft 197 kts 182°
2026-04-27 06:46 -41.22878 174.81354 2969 ft 181 kts 182°
2026-04-27 06:46 -41.24091 174.81282 2822 ft 178 kts 181°
2026-04-27 06:47 -41.25366 174.81159 2098 ft 192 kts 184°
2026-04-27 06:47 -41.26719 174.81040 1547 ft 193 kts 180°
2026-04-27 06:47 -41.28025 174.81028 1170 ft 182 kts 184°
2026-04-27 06:47 -41.29246 174.80896 782 ft 169 kts 184°
2026-04-27 06:48 -41.30410 174.80794 749 ft 172 kts 185°
2026-04-27 06:48 -41.31667 174.80622 1081 ft 189 kts 186°
2026-04-27 06:48 -41.32966 174.80459 1260 ft 179 kts 186°
2026-04-27 06:48 -41.34185 174.80227 1025 ft 189 kts 191°
2026-04-27 06:49 -41.35616 174.79849 1292 ft 226 kts 192°
2026-04-27 06:49 -41.37249 174.79735 1912 ft 248 kts 172°
2026-04-27 06:49 -41.39054 174.80109 2364 ft 271 kts 168°
2026-04-27 06:49 -41.40912 174.80696 2930 ft 276 kts 163°
2026-04-27 06:50 -41.42736 174.81507 3607 ft 277 kts 158°
2026-04-27 06:50 -41.44595 174.82269 4151 ft 285 kts 172°
2026-04-27 06:50 -41.46633 174.82375 4386 ft 303 kts 181°
2026-04-27 06:50 -41.48806 174.82080 4288 ft 327 kts 195°
2026-04-27 06:51 -41.50895 174.80753 4032 ft 350 kts 216°
2026-04-27 06:51 -41.52602 174.78343 3778 ft 368 kts 237°
2026-04-27 06:51 -41.53583 174.75277 3560 ft 350 kts 256°
2026-04-27 06:51 -41.53973 174.72125 3593 ft 341 kts 264°
2026-04-27 06:52 -41.54088 174.69008 4265 ft 324 kts 269°
2026-04-27 06:52 -41.54022 174.66217 4756 ft 283 kts 277°
2026-04-27 06:52 -41.53622 174.63718 4963 ft 272 kts 286°
2026-04-27 06:52 -41.53013 174.61330 4997 ft 271 kts 291°
2026-04-27 06:53 -41.52282 174.59015 5228 ft 271 kts 294°
2026-04-27 06:53 -41.51476 174.56719 5736 ft 275 kts 294°
2026-04-27 06:53 -41.50644 174.54426 5966 ft 274 kts 294°
2026-04-27 06:53 -41.49809 174.52139 5993 ft 274 kts 294°
2026-04-27 06:54 -41.48910 174.49897 5986 ft 275 kts 304°
2026-04-27 06:54 -41.47571 174.48058 5960 ft 279 kts 323°
2026-04-27 06:54 -41.45827 174.46880 5870 ft 281 kts 342°
2026-04-27 06:54 -41.43926 174.46624 5548 ft 273 kts
2026-04-27 06:55 -41.42096 174.46794 5410 ft 257 kts 13°
2026-04-27 06:55 -41.40476 174.47727 4828 ft 261 kts 33°
2026-04-27 06:55 -41.38980 174.49153 3996 ft 271 kts 39°